Location: Allen Lane School
(37.8198°N, 89.7382°W)
Time: 13:42:44
(UTC+00:00)

Cosmos 44 - Pass Details

Date: 09 July 2022
Orbit: 595 x 766 km, 65.1° (Epoch: 18 August)

Event Time Altitude Azimuth Distance (km) Brightness Sun altitude
Exits shadow 06:22:51 15° 294° (WNW) 1,736 5.5 -29.7°
Maximum altitude 06:24:06 16° 313° (NW) 1,648 5.6 -29.6°
Drops below altitude 10° 06:26:54 10° 352° (N) 1,988 6.5 -29.6°
Sets 06:29:56 0° 15° (NNE) 2,873 7.7 -29.5°
